Regional Weather Roundup
Issued by NWS

Home | Current Version | Previous Version | Text Only | Print | Product List | Glossary On
Versions: 1 2 3 4 5 6 7 8 9 10 11 12 13 14 15 16 17 18 19 20 21 22 23 24 25 26 27
000
ASUS45 KBOI 230110
RWRID

IDAHO REGIONAL WEATHER ROUNDUP
NATIONAL WEATHER SERVICE BOISE ID
700 PM MDT WED MAR 22 2017

NOTE: "FAIR" INDICATES FEW OR NO CLOUDS BELOW 12000 FEET
WITH NO SIGNIFICANT WEATHER AND/OR OBSTRUCTIONS TO VISIBILITY

IDZ012-014-230200-
SOUTHWEST IDAHO


CITY           SKY/WX    TMP DP  RH WIND       PRES   REMARKS
BOISE          CLOUDY    58  30  34 W8        29.83S
CALDWELL       CLOUDY    58  36  43 NW8       29.84R
MOUNTAIN HOME  CLOUDY    58  31  35 N7        29.82F
$$

IDZ016-017-230200-
SOUTHCENTRAL IDAHO


CITY           SKY/WX    TMP DP  RH WIND       PRES   REMARKS
BURLEY         CLOUDY    46  37  71 W13G21    29.85S
JEROME         CLOUDY    47  39  74 SE14      29.85F
TWIN FALLS     LGT RAIN  45  35  68 CALM      29.87S
$$

IDZ019>023-230200-
SOUTHEAST IDAHO


CITY           SKY/WX    TMP DP  RH WIND       PRES   REMARKS
IDAHO FALLS    CLOUDY    50  36  58 SW5       29.84S
POCATELLO      PTCLDY    51  39  63 W3        29.85S
REXBURG        CLOUDY    50  32  50 SE7       29.83F
$$

IDZ006-010-011-018-031-032-230200-
CENTRAL IDAHO MOUNTAINS


CITY           SKY/WX    TMP DP  RH WIND       PRES   REMARKS
MCCALL         MOCLDY    41  31  67 N5        29.85F
HAILEY         CLOUDY    46  25  42 S8        29.87S
STANLEY          N/A     42  20  41 CALM      29.87S
SALMON         MOCLDY    48  30  49 N7        29.78R
CHALLIS        PTCLDY    50  22  33 W13       29.79R
$$

IDZ002-004-006-007-026-230200-
NORTHERN IDAHO


CITY           SKY/WX    TMP DP  RH WIND       PRES   REMARKS
LEWISTON       CLOUDY    49  44  83 SE6       29.91R
LOWELL           N/A     48  43  82 CALM      29.88R
COEUR D`ALENE  CLOUDY    49  41  74 W8        29.87S
MULLAN PASS    SNOW      32  32 100 VRB3      29.84S VSB 1/4
$$




USA.gov is the U.S. government's official web portal to all federal, state and local government web resources and services.